Find OneWeb SL0588

NORAD ID: 55153 Int'l Des: 2023-004 Owner: ONEWEBN Country: UK Constellation: oneweb operational
LEOCIRCULARPOLARONEWEB_TYPE

リアルタイム位置

3D地球を読み込み中...

OneWeb SL0588について

説明を読み込み中...

次回通過

Passes for default location (London). Set your location on the main map for personalized predictions.

高度履歴

Loading altitude history...

軌道要素

1 55153U 23004P 26127.13491757 -.00000064 00000-0 -19433-3 0 9998
2 55153 87.9177 343.6411 0001496 98.2865 261.8437 13.18685508164287
Epoch: May 7, 2026 • Age: 7 hours

現在のステータス

高度 1193.8 km
速度 7.26 km/s
衛星直下点 34.32°N, 40.72°W
打ち上げ日 Jan 10, 2023
運用期間 3.3 years
タイプ internet

技術仕様

分類 Payload
質量 148.00 kg
乾燥質量 140.00 kg
総質量 148.00 kg
長さ 1.30 m
直径 1.00 m
スパン 5.00 m
形状 Trapezoid+2 pan
製造者 ONEWUS
バスタイプ ARROW
フェーズステータス In Orbit
所有者/国 ONEWEBN/UK

Most Searched